Regional Weather Roundup
Issued by NWS

Home | Current Version | Previous Version | Text Only | Print | Product List | Glossary On
Versions: 1 2 3 4 5 6 7 8 9 10 11 12 13 14 15 16 17 18 19 20 21 22 23 24 25 26 27 28 29 30 31 32 33 34 35 36 37 38 39 40 41 42 43 44 45 46 47 48 49 50
000
ASUS44 KMEG 301510
RWRTN
TENNESSEE HOURLY STATE WEATHER ROUNDUP
NATIONAL WEATHER SERVICE MEMPHIS TN
1000 AM CDT THU OCT 30 2014

TNZ002-004-019-021-049-052-054-088>092-301600-
WEST TENNESSEE

CITY           SKY/WX    TMP DP  RH WIND       PRES   REMARKS
MEMPHIS INTL   MOSUNNY   56  42  59 E5        30.17S
NWS MEMPHIS      N/A     53 N/A N/A MISG        N/A
JACKSON        SUNNY     53  43  68 CALM      30.18S
DYERSBURG      SUNNY     54  36  50 S5        30.19S
UNION CITY     SUNNY     48  43  81 S3        30.17S
PARIS          SUNNY     50  37  62 SE6       30.18S
HUNTINGDON     SUNNY     50  40  68 CALM      30.18S
SAVANNAH       SUNNY     50  46  87 CALM      30.19R
$$

TNZ008-025-027-028-033-062-065-066-301600-
NORTH MIDDLE TENNESSEE

CITY           SKY/WX    TMP DP  RH WIND       PRES   REMARKS
NASHVILLE      SUNNY     52  40  63 CALM      30.18S
DICKSON        SUNNY     48  37  66 CALM      30.16R
PORTLAND       SUNNY     46  39  76 N3        30.16S
CLARKSVILLE    SUNNY     49  41  74 CALM      30.18S
LEBANON        SUNNY     49  41  74 CALM      30.15
SMYRNA         SUNNY     52  41  66 CALM      30.18F
MURFREESBORO   SUNNY     49  40  71 CALM      30.16F
COOKEVILLE     SUNNY     50  43  76 CALM      30.15S
GALLATIN       SUNNY     50  43  77 CALM      30.17F
CROSSVILLE     SUNNY     49  36  61 NW5       30.14S
ROCKWOOD       SUNNY     51  37  58 VRB3      30.11S
$$

TNZ061-075-076-078-094-096-097-301600-
SOUTH MIDDLE TENNESSEE

CITY           SKY/WX    TMP DP  RH WIND       PRES   REMARKS
FAYETTEVILLE   SUNNY     50  39  66 CALM      30.15S
TULLAHOMA      SUNNY     50  41  71 NE3       30.16S
WINCHESTER     SUNNY     48  43  81 CALM      30.15S
MCMINNVILLE    SUNNY     48  46  93 CALM      30.16S
COLUMBIA       SUNNY     48  48 100 CALM      30.15S
SHELBYVILLE    SUNNY     52  43  71 CALM      30.16S
$$

TNZ017-018-042-046-047-301600-
NORTHEAST TENNESSEE

CITY           SKY/WX    TMP DP  RH WIND       PRES   REMARKS
TRI CITIES     PTSUNNY   43  42  97 VRB3      30.12F FOG
ELIZABETHTON   SUNNY     48  43  81 CALM      30.11S
$$

TNZ012-013-036-069-073-074-301600-
CENTRAL EAST TENNESSEE

CITY           SKY/WX    TMP DP  RH WIND       PRES   REMARKS
KNOXVILLE      SUNNY     50  42  74 CALM      30.11F
OAK RIDGE      SUNNY     51  43  74 CALM      30.13F
GATLINBURG     SUNNY     48  43  81 CALM      30.11F
MORRISTOWN     SUNNY     50  43  76 CALM      30.12S
$$

TNZ083-085-099-301600-
SOUTHEAST TENNESSEE

CITY           SKY/WX    TMP DP  RH WIND       PRES   REMARKS
CHATTANOOGA    SUNNY     56  43  61 N5        30.13F
$$

SKY/WX REPORTED AS FAIR MEANS FEW OR NO CLOUDS BELOW
12 THOUSAND FEET.




USA.gov is the U.S. government's official web portal to all federal, state and local government web resources and services.